Location: Fort Wayne
(41.1310°N, 85.1290°W)
Time: 22:48:44
(UTC-05:00)

Vanguard 3 - Visible Passes

Search period start: 08 December 2016 00:00
Search period end: 18 December 2016 00:00
Orbit: 507 x 3267 km, 33.4° (Epoch: 08 December)

Date Brightness Start Highest point End Pass type
(mag) Time Alt. Az. Time Alt. Az. Time Alt. Az.
08 Dec 10.8 02:15:12 20° SE 02:15:12 20° SE 02:24:25 10° E visible
08 Dec 10.1 04:19:50 35° SSW 04:26:14 49° SSE 04:44:27 10° E visible
08 Dec 10.3 06:25:02 10° WSW 06:41:37 67° S 07:01:12 10° E visible
09 Dec 10.2 03:10:44 35° SSE 03:11:29 35° SE 03:26:52 10° E visible
09 Dec 10.1 05:15:22 27° SW 05:25:20 61° SSE 05:44:50 10° E visible
10 Dec 10.8 02:01:34 19° ESE 02:01:34 19° ESE 02:08:12 10° E visible
10 Dec 9.8 04:06:11 45° S 04:09:46 51° SSE 04:27:49 10° E visible
10 Dec 10.2 06:10:48 15° WSW 06:25:02 67° S 06:44:49 10° E visible
11 Dec 10.2 02:56:56 36° SE 02:56:56 36° SE 03:10:14 10° E visible
11 Dec 9.8 05:01:32 37° SW 05:08:52 63° SSE 05:28:15 10° E visible
11 Dec 10.4 07:08:09 10° W 07:24:57 65° S 07:44:21 10° ESE visible
12 Dec 10.9 01:47:38 17° ESE 01:47:38 17° ESE 01:51:52 10° E visible
12 Dec 9.6 03:52:14 52° S 03:53:26 53° SSE 04:11:06 10° E visible
12 Dec 10.1 05:56:51 22° WSW 06:08:30 67° S 06:28:19 10° ESE visible
13 Dec 10.3 02:42:53 34° ESE 02:42:53 34° ESE 02:53:33 10° E visible
13 Dec 9.6 04:47:29 46° SW 04:52:31 63° S 05:11:34 10° E visible
13 Dec 10.3 06:52:25 10° W 07:08:20 63° SSW 07:27:52 10° ESE visible
14 Dec 11.1 01:33:29 14° E 01:33:29 14° E 01:35:28 10° E visible
14 Dec 9.6 03:38:05 54° SSE 03:38:05 54° SSE 03:54:21 10° E visible
14 Dec 9.9 05:42:42 29° WSW 05:52:04 66° S 06:11:41 10° ESE visible
15 Dec 10.4 02:28:40 29° ESE 02:28:40 29° ESE 02:36:51 10° E visible
15 Dec 9.4 04:33:16 55° SW 04:36:16 64° S 04:54:49 10° E visible
15 Dec 10.2 06:37:52 14° W 06:51:47 60° SSW 07:11:14 10° ESE visible
16 Dec 9.7 03:23:49 50° SE 03:23:49 50° SE 03:37:33 10° E visible
16 Dec 9.7 05:28:25 35° WSW 05:35:43 64° S 05:54:57 10° ESE visible
17 Dec 10.6 02:14:22 24° E 02:14:22 24° E 02:20:09 10° E visible
17 Dec 9.3 04:18:58 61° SSW 04:20:08 63° S 04:38:00 10° E visible
17 Dec 10.2 06:23:34 18° W 06:35:18 57° SSW 06:54:25 10° SE visible
